GW5579 Weather Reports


time (UTC)temp
F
wind
direction
speed
knots
gust
knots
rain 1hr
in
rain 24hr
in
rain mn
in
humidity
%
barometer
mb
20260508115549 46 128 0.9 5.2 0.31 0.52 0.52 97 1019.3
20260508115045 46 12 2.6 2.6 0.24 0.49 0.49 97 1019.3
20260508114542 46 46 3.5 5.2 0.14 0.46 0.46 97 1019.3
20260508114039 46 350 1.7 2.6 0.12 0.45 0.45 97 1019.4
20260508113536 46 56 1.7 3.5 0.12 0.44 0.44 97 1019.3
20260508113034 46 145 0.9 2.6 0.12 0.43 0.43 97 1019.2
20260508112530 46 12 2.6 7.0 0.17 0.42 0.42 97 1019.3
20260508112027 46 106 1.7 2.6 0.19 0.41 0.41 97 1019.2
20260508111524 46 17 4.3 7.0 0.19 0.39 0.39 97 1019.2
20260508111021 46 141 0.9 1.7 0.17 0.38 0.38 97 1019.2
20260508110519 46 110 1.7 6.1 0.12 0.36 0.36 97 1019.1
20260508110014 46 339 6.1 7.0 0.19 0.35 0.35 97 1019.2
20260508105510 46 26 3.5 5.2 0.12 0.33 0.33 97 1019.2
20260508105008 46 342 3.5 3.5 0.12 0.32 0.32 97 1019.2
20260508104505 46 99 1.7 5.2 0.12 0.31 0.31 97 1019.2
20260508104001 46 15 6.1 7.8 0.19 0.30 0.30 97 1019.0
20260508103458 46 90 2.6 7.0 0.19 0.28 0.28 97 1019.2
20260508102955 46 91 2.6 5.2 0.17 0.27 0.27 97 1019.2
20260508102454 46 353 3.5 5.2 0.17 0.25 0.25 97 1019.2
20260508101950 46 355 2.6 3.5 0.26 0.24 0.24 97 1019.1
20260508101448 46 225 0.9 1.7 0.26 0.22 0.22 97 1019.2
20260508100945 46 283 2.6 7.8 0.24 0.20 0.20 97 1019.1
20260508100444 46 348 1.7 2.6 0.19 0.17 0.17 97 1019.1
20260508095939 46 34 1.7 3.5 0.19 0.15 0.15 96 1019.2
20260508095437 46 74 2.6 3.5 0.12 0.14 0.14 96 1019.1
20260508094934 46 21 3.5 3.5 0.05 0.12 0.12 96 1019.2
20260508094430 46 40 1.7 3.5 0.17 0.12 0.12 96 1018.9
20260508093927 46 88 0.9 5.2 0.19 0.11 0.11 96 1019.1
20260508093425 47 66 1.7 3.5 0.14 0.09 0.09 96 1018.9
20260508092922 47 351 0.9 2.6 0.19 0.08 0.08 96 1019.0
20260508092420 47 346 0.9 2.6 0.12 0.06 0.06 96 1019.0
20260508091918 47 331 2.6 3.5 0.12 0.05 0.05 95 1019.0
20260508091415 47 151 0.0 2.6 0.12 0.04 0.04 95 1019.0
20260508090912 47 154 0.0 2.6 0.05 0.03 0.03 95 1018.9
20260508090411 47 88 0.9 1.7 0.07 0.02 0.02 94 1018.9
20260508085911 47 69 0.9 1.7 0.07 0.02 0.02 94 1018.9
20260508085409 47 151 0.0 2.6 0.00 0.01 0.01 93 1018.7
20260508084905 47 169 0.0 1.7 0.05 0.01 0.01 94 1018.9
20260508084401 47 143 0.0 2.6 0.05 0.01 0.01 93 1018.7
20260508083859 47 64 2.6 2.6 0.00 0.00 0.00 92 1018.9
20260508083357 47 325 1.7 2.6 0.00 0.00 0.00 92 1018.8
20260508082856 47 110 1.7 2.6 0.00 0.00 0.00 91 1018.6
20260508082354 47 140 2.6 3.5 0.00 0.00 0.00 91 1018.8
20260508081851 47 78 1.7 3.5 0.00 0.00 0.00 91 1018.9
20260508081348 47 16 2.6 5.2 0.00 0.00 0.00 91 1018.8
20260508080845 47 173 0.9 3.5 0.00 0.00 0.00 91 1018.6
20260508080343 47 342 3.5 3.5 0.00 0.00 0.00 90 1018.8
20260508075839 47 126 0.9 7.8 0.00 0.00 0.00 90 1018.6
20260508075336 47 90 2.6 6.1 0.00 0.00 0.00 89 1018.6
20260508074834 48 78 3.5 5.2 0.00 0.00 0.00 89 1018.6
20260508074331 48 138 1.7 2.6 0.00 0.00 0.00 89 1018.4
20260508073828 47 81 1.7 1.7 0.00 0.00 0.00 89 1018.5
20260508073326 47 75 6.1 8.7 0.00 0.00 0.00 89 1018.2
20260508072822 47 157 0.0 2.6 0.00 0.00 0.00 90 1018.3
20260508072319 47 21 2.6 8.7 0.00 0.00 0.00 90 1018.3
20260508071816 47 3 1.7 2.6 0.00 0.00 0.00 90 1018.3
20260508071315 47 104 0.9 2.6 0.00 0.00 0.00 91 1018.1
20260508070811 47 289 1.7 6.1 0.00 0.00 0.00 91 1018.1
20260508070310 47 118 4.3 7.0 0.00 0.00 0.00 91 1018.2
20260508065807 47 224 2.6 7.0 0.00 0.00 0.00 91 1018.2
20260508065307 47 11 2.6 8.7 0.00 0.00 0.00 91 1018.3
20260508064803 47 161 0.9 5.2 0.00 0.00 0.00 91 1018.1
20260508064300 47 217 1.7 3.5 0.00 0.00 0.00 91 1018.0
20260508063757 47 122 1.7 3.5 0.00 0.00 0.00 91 1017.8
20260508063255 47 258 4.3 6.1 0.00 0.00 0.00 92 1017.8
20260508062752 47 168 0.9 3.5 0.00 0.00 0.00 92 1017.8
20260508062250 47 245 1.7 3.5 0.00 0.00 0.00 92 1017.7
20260508061746 47 95 0.9 3.5 0.00 0.00 0.00 93 1018.0
20260508061243 47 169 2.6 5.2 0.00 0.00 0.00 93 1017.7
20260508060740 47 145 0.9 1.7 0.00 0.00 0.00 94 1017.5
20260508060238 47 19 5.2 6.1 0.00 0.00 0.00 94 1017.7
20260508055733 47 118 1.7 2.6 0.00 0.00 0.00 95 1017.5
20260508055230 46 117 0.9 2.6 0.00 0.00 0.00 95 1017.5
20260508054727 46 348 1.7 2.6 0.00 0.00 0.00 95 1017.5
20260508054225 46 51 2.6 5.2 0.00 0.00 0.00 95 1017.4
20260508053722 46 331 7.0 7.0 0.00 0.00 0.00 95 1017.3
20260508053219 46 63 2.6 3.5 0.00 0.00 0.00 96 1017.3
20260508052716 46 354 1.7 3.5 0.00 0.00 0.00 96 1017.5
20260508052213 46 332 1.7 2.6 0.00 0.00 0.00 96 1017.7
20260508051709 46 117 0.9 6.1 0.00 0.00 0.00 96 1017.6
20260508051205 46 27 6.1 7.8 0.00 0.00 0.00 96 1017.6
20260508050701 46 96 0.9 3.5 0.00 0.00 0.00 96 1017.7
20260508050159 46 143 0.0 3.5 0.00 0.00 0.00 96 1017.5
20260508045654 46 18 2.6 5.2 0.00 0.00 0.00 96 1017.5
20260508045153 46 17 3.5 5.2 0.00 0.00 0.00 96 1017.4
20260508044649 46 35 4.3 6.1 0.00 0.00 0.00 96 1017.4
20260508044145 46 9 6.1 7.8 0.00 0.00 0.00 96 1017.4
20260508043642 46 176 0.9 5.2 0.00 0.00 0.00 96 1017.4
20260508043140 46 17 3.5 6.1 0.00 0.00 0.00 97 1017.4
20260508042636 46 336 3.5 5.2 0.00 0.00 0.00 97 1017.3
20260508042134 46 357 1.7 5.2 0.00 0.00 0.00 97 1017.3
20260508041630 46 191 1.7 7.0 0.00 0.00 0.00 97 1017.4
20260508041127 46 349 3.5 5.2 0.00 0.00 0.00 97 1017.4
20260508040623 46 27 1.7 2.6 0.00 0.00 0.00 97 1017.2
20260508040121 46 336 4.3 6.1 0.00 0.00 0.00 97 1017.0
20260508035618 46 111 1.7 6.1 0.00 0.00 0.00 97 1017.1
20260508035115 46 29 1.7 2.6 0.00 0.00 0.00 97 1017.2
20260508034612 46 341 3.5 7.0 0.00 0.00 0.00 97 1017.0
20260508034109 46 331 3.5 5.2 0.00 0.00 0.00 97 1017.2
20260508033606 46 117 0.0 0.9 0.00 0.00 0.00 97 1017.0
20260508033104 46 5 2.6 6.1 0.00 0.00 0.00 97 1016.8
20260508032601 46 328 4.3 7.0 0.00 0.00 0.00 97 1017.0
20260508032058 46 45 3.5 3.5 0.00 0.00 0.00 97 1017.0
20260508031555 46 162 0.9 3.5 0.00 0.00 0.00 97 1016.9
20260508031051 46 24 3.5 6.1 0.00 0.00 0.00 97 1017.0
20260508030547 46 145 1.7 3.5 0.00 0.00 0.00 97 1016.9
20260508030046 46 4 4.3 6.1 0.00 0.00 0.00 97 1016.9
20260508025542 46 81 1.7 1.7 0.00 0.00 0.00 97 1016.7
20260508025039 46 24 11.3 12.2 0.00 0.00 0.00 97 1016.9
20260508024535 46 63 2.6 7.8 0.00 0.00 0.00 97 1016.9
20260508024032 46 72 1.7 2.6 0.00 0.00 0.00 97 1016.8
20260508023528 46 305 2.6 6.1 0.00 0.00 0.00 97 1016.8
20260508023026 46 30 3.5 5.2 0.00 0.00 0.00 97 1017.0
20260508022522 46 350 2.6 6.1 0.00 0.00 0.00 97 1016.9
20260508022019 46 45 3.5 7.0 0.00 0.00 0.00 97 1016.8
20260508021515 47 130 1.7 7.0 0.00 0.00 0.00 97 1016.9
20260508021011 47 179 0.9 1.7 0.00 0.00 0.00 97 1016.8
20260508020509 46 32 1.7 3.5 0.00 0.00 0.00 97 1016.9
20260508020006 46 148 0.0 6.1 0.00 0.00 0.00 97 1016.8
20260508015503 47 337 1.7 2.6 0.00 0.00 0.00 97 1016.8
20260508015000 47 80 3.5 3.5 0.00 0.00 0.00 97 1016.8
20260508014456 47 332 1.7 2.6 0.00 0.00 0.00 97 1016.9
20260508013953 47 127 0.9 3.5 0.00 0.00 0.00 97 1016.9
20260508013448 47 31 4.3 6.1 0.00 0.00 0.00 97 1016.8
20260508012946 47 65 1.7 6.1 0.00 0.00 0.00 97 1016.9
20260508012443 47 5 2.6 2.6 0.00 0.00 0.00 97 1016.9
20260508011940 47 194 0.9 3.5 0.00 0.00 0.00 97 1016.7
20260508011438 47 161 0.9 1.7 0.00 0.00 0.00 97 1016.8
20260508010936 47 69 1.7 2.6 0.00 0.00 0.00 97 1016.9
20260508010432 47 27 1.7 2.6 0.00 0.00 0.00 97 1016.8
20260508005930 47 59 1.7 2.6 0.00 0.00 0.00 97 1016.6
20260508005426 47 6 5.2 7.8 0.00 0.00 0.00 97 1016.8
20260508004923 47 25 1.7 6.1 0.00 0.00 0.00 97 1016.8
20260508004419 47 142 1.7 2.6 0.00 0.00 0.00 97 1016.8
20260508003916 47 25 5.2 7.0 0.00 0.00 0.00 97 1016.8
20260508003413 47 88 1.7 5.2 0.00 0.00 0.00 97 1016.9
20260508002910 47 121 1.7 3.5 0.00 0.00 0.00 97 1016.8
20260508002406 47 24 2.6 5.2 0.00 0.00 0.00 97 1016.5
20260508001902 47 122 1.7 1.7 0.00 0.00 0.00 97 1016.9
20260508001358 47 92 3.5 6.1 0.00 0.00 0.00 97 1016.9
20260508000855 47 29 0.9 2.6 0.00 0.00 0.00 97 1017.0
20260508000351 47 7 0.9 3.5 0.00 0.00 0.00 97 1017.0
20260507235848 47 35 3.5 3.5 0.00 0.00 0.00 97 1017.0
20260507235346 47 53 2.6 2.6 0.00 0.00 0.00 97 1016.9
20260507234843 47 46 3.5 5.2 0.00 0.00 0.00 97 1016.7
20260507234339 47 350 1.7 2.6 0.00 0.00 0.00 96 1016.7
20260507233835 47 5 4.3 5.2 0.00 0.00 0.00 96 1016.8
20260507233333 47 341 2.6 3.5 0.00 0.00 0.00 96 1016.7
20260507232831 47 24 3.5 7.0 0.00 0.00 0.00 96 1016.7
20260507232327 47 108 1.7 5.2 0.00 0.00 0.00 96 1016.8
20260507231825 47 42 4.3 6.1 0.00 0.00 0.00 96 1017.1
20260507231321 47 107 1.7 2.6 0.00 0.00 0.00 96 1016.8
20260507230818 47 333 1.7 3.5 0.00 0.00 0.00 95 1016.9
20260507230315 47 7 1.7 3.5 0.00 0.00 0.00 95 1016.9
20260507225815 47 348 1.7 2.6 0.00 0.00 0.00 95 1016.8
20260507225312 47 64 2.6 2.6 0.00 0.00 0.00 95 1016.9
20260507224807 47 52 0.9 5.2 0.00 0.00 0.00 94 1016.7
20260507224304 47 54 2.6 6.1 0.00 0.00 0.00 94 1016.8
20260507223800 47 17 1.7 2.6 0.00 0.00 0.00 94 1016.7
20260507223257 47 105 0.9 3.5 0.00 0.00 0.00 93 1016.5
20260507222754 48 46 3.5 5.2 0.00 0.00 0.00 92 1016.7
20260507222250 48 92 0.9 1.7 0.00 0.00 0.00 92 1016.6
20260507221748 48 152 0.9 1.7 0.00 0.00 0.00 92 1016.5
20260507221243 48 53 3.5 3.5 0.00 0.00 0.00 91 1016.6
20260507220740 48 12 3.5 5.2 0.00 0.00 0.00 92 1016.5
20260507220239 48 14 2.6 7.0 0.00 0.00 0.00 92 1016.4
20260507215734 48 339 3.5 5.2 0.00 0.00 0.00 92 1016.4
20260507215232 48 348 4.3 6.1 0.00 0.00 0.00 92 1016.3
20260507214729 48 136 0.9 6.1 0.00 0.00 0.00 92 1016.5
20260507214226 48 24 1.7 3.5 0.00 0.00 0.00 93 1016.5
20260507213721 48 46 3.5 3.5 0.00 0.00 0.00 93 1016.6
20260507213219 48 329 3.5 3.5 0.00 0.00 0.00 93 1016.5
20260507212715 48 149 1.7 2.6 0.00 0.00 0.00 93 1016.5
20260507212212 48 38 4.3 6.1 0.00 0.00 0.00 93 1016.5
20260507211708 48 70 2.6 3.5 0.00 0.00 0.00 93 1016.4
20260507211204 48 320 3.5 7.0 0.00 0.00 0.00 93 1016.4
20260507210702 48 339 5.2 7.8 0.00 0.00 0.00 92 1016.3
20260507210158 48 323 1.7 2.6 0.00 0.00 0.00 93 1016.3
20260507205654 48 57 2.6 6.1 0.00 0.01 0.01 93 1016.3
20260507205151 48 55 1.7 3.5 0.00 0.01 0.01 93 1016.1
20260507204647 48 292 2.6 3.5 0.00 0.01 0.01 93 1016.2
20260507204145 48 58 2.6 5.2 0.00 0.01 0.01 93 1016.3
20260507203643 48 353 3.5 3.5 0.00 0.01 0.01 93 1016.2
20260507203140 48 353 2.6 3.5 0.00 0.01 0.01 93 1016.3
20260507202636 48 145 0.9 2.6 0.00 0.01 0.01 93 1016.0
20260507202132 48 356 1.7 5.2 0.00 0.01 0.01 93 1016.1
20260507201627 48 60 1.7 5.2 0.00 0.01 0.01 93 1016.2
20260507201125 48 352 4.3 6.1 0.00 0.01 0.01 93 1016.0
20260507200620 48 59 3.5 5.2 0.00 0.01 0.01 93 1016.0
20260507200117 48 124 0.0 1.7 0.00 0.01 0.01 94 1015.9
20260507195614 48 343 6.1 7.0 0.00 0.01 0.01 94 1016.0
20260507195111 48 116 1.7 5.2 0.00 0.01 0.01 94 1015.8
20260507194608 48 74 1.7 3.5 0.00 0.01 0.01 94 1015.7
20260507194103 48 51 1.7 3.5 0.00 0.01 0.01 94 1015.9
20260507193600 48 322 3.5 5.2 0.00 0.01 0.01 94 1015.7
20260507193057 48 332 1.7 2.6 0.00 0.01 0.01 94 1015.6
20260507192553 48 343 4.3 6.1 0.00 0.01 0.01 94 1015.6
20260507192051 48 32 3.5 7.0 0.00 0.01 0.01 94 1015.7
20260507191546 48 199 0.9 6.1 0.00 0.01 0.01 94 1015.5
20260507191043 48 299 1.7 6.1 0.00 0.01 0.01 94 1015.6
20260507190540 48 71 2.6 5.2 0.00 0.01 0.01 94 1015.3
20260507190039 48 17 5.2 7.0 0.00 0.01 0.01 94 1015.4
20260507185537 48 37 1.7 2.6 0.00 0.01 0.01 94 1015.2
20260507185033 48 155 0.9 2.6 0.00 0.01 0.01 94 1015.2
20260507184532 48 332 3.5 6.1 0.00 0.01 0.01 94 1015.2
20260507184029 48 3 3.5 5.2 0.00 0.01 0.01 94 1015.2
20260507183525 48 66 3.5 5.2 0.00 0.01 0.01 94 1015.4
20260507183022 48 339 2.6 3.5 0.00 0.01 0.01 95 1015.4
20260507182518 48 247 0.9 1.7 0.00 0.01 0.01 95 1015.2
20260507182014 48 247 0.0 3.5 0.00 0.01 0.01 95 1015.0
20260507181512 48 147 0.9 2.6 0.00 0.01 0.01 95 1015.1
20260507181008 48 351 3.5 6.1 0.00 0.01 0.01 95 1015.0
20260507180504 48 10 2.6 5.2 0.00 0.01 0.01 95 1015.0
20260507180000 48 35 3.5 6.1 0.00 0.01 0.01 95 1014.9
20260507175457 48 90 0.9 6.1 0.00 0.01 0.01 95 1015.0
20260507174955 48 92 0.9 2.6 0.00 0.01 0.01 95 1015.1
20260507174452 48 117 1.7 7.0 0.00 0.01 0.01 95 1015.0
20260507173949 48 151 0.9 2.6 0.00 0.01 0.01 95 1015.0
20260507173446 48 167 0.9 3.5 0.00 0.01 0.01 95 1015.0
20260507172943 48 62 1.7 2.6 0.00 0.01 0.01 95 1014.9
20260507172439 48 85 1.7 5.2 0.00 0.01 0.01 95 1014.8
20260507171936 48 65 2.6 7.8 0.00 0.01 0.01 94 1014.9
20260507171432 48 83 3.5 3.5 0.00 0.01 0.01 94 1014.7
20260507170930 48 335 3.5 3.5 0.00 0.01 0.01 94 1014.7
20260507170426 48 129 1.7 6.1 0.00 0.01 0.01 94 1014.6
20260507165922 48 170 0.9 7.8 0.00 0.01 0.01 93 1014.6
20260507165418 48 29 5.2 7.0 0.00 0.01 0.01 93 1014.6
20260507164914 48 310 2.6 3.5 0.00 0.01 0.01 93 1014.6
20260507164411 48 78 0.9 2.6 0.00 0.01 0.01 93 1014.5
20260507163909 48 138 1.7 3.5 0.00 0.01 0.01 93 1014.5
20260507163406 48 19 3.5 5.2 0.00 0.01 0.01 92 1014.2
20260507162902 48 17 5.2 7.8 0.00 0.01 0.01 92 1014.1
20260507162357 48 40 4.3 7.0 0.00 0.01 0.01 91 1014.0
20260507161855 49 78 1.7 5.2 0.00 0.01 0.01 91 1014.3
20260507161351 49 24 7.8 8.7 0.00 0.01 0.01 90 1014.2
20260507160848 49 341 1.7 5.2 0.00 0.01 0.01 90 1013.8
20260507160343 49 39 3.5 6.1 0.00 0.01 0.01 90 1013.9
20260507155840 49 61 5.2 7.8 0.00 0.01 0.01 89 1013.9
20260507155336 49 54 3.5 5.2 0.00 0.01 0.01 90 1014.0
20260507154833 49 323 3.5 7.8 0.00 0.01 0.01 90 1014.0
20260507154330 49 0 7.8 8.7 0.00 0.01 0.01 91 1014.0
20260507153827 49 80 3.5 7.0 0.00 0.01 0.01 90 1014.0
20260507153323 49 11 6.1 7.0 0.00 0.01 0.01 91 1014.0
20260507152820 50 69 1.7 7.0 0.00 0.01 0.01 91 1014.0
20260507152317 50 11 1.7 3.5 0.00 0.01 0.01 91 1013.8
20260507151813 50 46 4.3 7.0 0.00 0.01 0.01 90 1014.0
20260507151309 50 11 5.2 7.8 0.00 0.01 0.01 90 1014.0
20260507150806 50 48 2.6 5.2 0.00 0.01 0.01 89 1013.7
20260507150302 50 49 4.3 5.2 0.00 0.01 0.01 89 1013.8
20260507145759 50 355 5.2 7.0 0.00 0.01 0.01 89 1013.6
20260507145255 50 349 5.2 8.7 0.00 0.01 0.01 88 1013.6
20260507144752 50 20 4.3 7.0 0.00 0.01 0.01 88 1013.8
20260507144250 51 4 4.3 7.0 0.00 0.01 0.01 88 1013.6
20260507143746 51 3 2.6 7.0 0.00 0.01 0.01 87 1013.4
20260507143244 51 334 2.6 7.8 0.00 0.01 0.01 87 1013.5
20260507142739 51 8 5.2 9.6 0.00 0.01 0.01 87 1013.5
20260507142236 51 35 5.2 7.0 0.00 0.01 0.01 87 1013.3
20260507141732 51 96 1.7 5.2 0.00 0.01 0.01 86 1013.4
20260507141230 51 349 3.5 9.6 0.00 0.01 0.01 86 1013.3
20260507140725 51 179 0.9 3.5 0.00 0.01 0.01 87 1013.3
20260507140223 51 32 3.5 7.0 0.00 0.01 0.01 86 1013.2
20260507135720 51 29 7.8 8.7 0.00 0.01 0.01 86 1013.1
20260507135218 51 27 2.6 6.1 0.00 0.01 0.01 86 1012.8
20260507134713 52 307 5.2 7.8 0.00 0.01 0.01 85 1013.1
20260507134210 52 327 5.2 6.1 0.00 0.01 0.01 84 1013.1
20260507133706 54 32 4.3 6.1 0.00 0.01 0.01 82 1013.0
20260507133203 53 43 4.3 7.8 0.00 0.01 0.01 82 1012.8
20260507132700 54 8 7.0 8.7 0.00 0.01 0.01 81 1012.5
20260507132157 54 50 4.3 8.7 0.00 0.01 0.01 81 1012.5
20260507131654 55 108 1.7 7.8 0.00 0.01 0.01 82 1012.3
20260507131151 55 14 5.2 9.6 0.00 0.01 0.01 81 1012.2
20260507130647 55 27 5.2 13.0 0.00 0.01 0.01 81 1012.0
20260507130145 55 347 7.8 11.3 0.00 0.01 0.01 82 1012.0
20260507125644 55 10 6.1 11.3 0.00 0.01 0.01 81 1011.9
20260507125141 57 30 5.2 7.8 0.00 0.01 0.01 78 1012.0
20260507124637 58 50 4.3 7.0 0.00 0.01 0.01 77 1011.9
20260507124135 57 347 4.3 5.2 0.00 0.01 0.01 80 1012.1
20260507123633 57 37 6.1 8.7 0.00 0.01 0.01 80 1011.9
20260507123130 57 1 5.2 11.3 0.00 0.01 0.01 81 1012.1
20260507122625 57 28 3.5 8.7 0.00 0.01 0.01 80 1012.1
20260507122121 58 347 2.6 2.6 0.00 0.01 0.01 79 1012.0
20260507121618 58 17 6.1 7.0 0.00 0.01 0.01 79 1012.0
20260507121114 58 300 2.6 7.8 0.00 0.01 0.01 79 1012.0
20260507120610 58 199 1.7 6.1 0.00 0.01 0.01 81 1011.9
20260507120107 59 35 3.5 8.7 0.00 0.01 0.01 78 1011.7